Home   Weather   Majuro   Past weeks

Flag for Marshall Islands Past Weather in Majuro, Marshall Islands — Yesterday and Last 2 Weeks

Now
82 °F

Overcast.


Feels Like: 91 °F
Forecast: 82 / 86 °F
Wind: 12 mph from Southeast

Location: Majuro Atoll

Current Time: May 29, 2017 at 11:24:11 pm

Latest Report: May 29, 2017 at 10:54 pm


Visibility: 15 mi

Pressure: 29.84 "Hg

Humidity: 84%

Dew Point: 77 °F

Location of MajuroLocation

Past Weather in Majuro — Graph

°F

Majuro Temperature Yesterday

Maximum temperature yesterday: 88 °F (at 11:51 am)
Minimum temperature yesterday: 82 °F (at 5:51 am)
Average temperature yesterday: 84 °F

High & Low Weather Summary for the Past Weeks

 TemperatureHumidityPressure
High88 °F (May 29, 1:50 pm)93% (May 23, 6:51 am)29.90 "Hg (May 23, 6:51 am)
Low77 °F (May 27, 11:52 am)66% (May 23, 1:52 pm)29.72 "Hg (May 15, 2:51 pm)
Average84 °F79%29.81 "Hg
* Reported May 14 9:52 pm — May 29 9:51 pm, Majuro. Weather by CustomWeather, © 2017

Note: Actual official high and low records may vary slightly from our data, if they occured in-between our weather recording intervals... More about our weather records

Advertising

Majuro Weather History for the Previous 24 Hours

Scroll right to see more
 ConditionsComfort  
Time TempWeatherWind HumidityBarometerVisibility
9:51 pm
Mon, May 29
83 °FPassing clouds.9 mph79%29.84 "Hg15 mi
8:51 pm83 °FPassing clouds.9 mph78%29.83 "Hg15 mi
7:52 pm83 °FPassing clouds.10 mph78%29.83 "Hg15 mi
6:52 pm85 °FScattered clouds.6 mph74%29.81 "Hg15 mi
5:52 pm85 °FScattered clouds.6 mph77%29.78 "Hg15 mi
4:52 pm85 °FScattered clouds.6 mph76%29.78 "Hg15 mi
3:52 pm86 °FScattered clouds.8 mph74%29.77 "Hg15 mi
2:51 pm88 °FScattered clouds.7 mph70%29.78 "Hg15 mi
1:50 pm88 °FBroken clouds.7 mph73%29.79 "Hg15 mi
11:52 am85 °FPartly sunny.8 mph77%29.83 "Hg15 mi
10:51 am86 °FBroken clouds.10 mph75%29.85 "Hg15 mi
9:51 am86 °FBroken clouds.14 mph75%29.85 "Hg15 mi
8:50 am85 °FCloudy.9 mph76%29.84 "Hg15 mi
7:55 am85 °FCloudy.7 mph77%29.84 "Hg15 mi
6:56 am82 °FOvercast.6 mph81%29.83 "Hg15 mi
5:54 am82 °FMostly cloudy.6 mph83%29.80 "Hg15 mi
4:52 am82 °FMostly cloudy.10 mph82%29.79 "Hg15 mi
3:55 am82 °FMostly cloudy.7 mph81%29.79 "Hg15 mi
2:52 am83 °FMostly cloudy.9 mph82%29.80 "Hg15 mi
1:50 am83 °FPassing clouds.6 mph82%29.82 "Hg15 mi
12:53 am83 °FPassing clouds.7 mph82%29.83 "Hg15 mi
11:51 pm
Sun, May 28
83 °FPassing clouds.7 mph83%29.84 "Hg15 mi
Weather by CustomWeather, © 2017

See weather overviewHow to use our weather pages